Location: Unspecified
(0.0000°N, 0.0000°E)
Time: 12:45:30
(UTC+00:00)

OBJECT M - Pass Details

Date: 19 February 2026
Orbit: 539 x 546 km, 97.4° (Epoch: 8 March)

Event Time Altitude Azimuth Distance (km) Brightness Sun altitude
Rises 03:49:35 0° 149° (SSE) 2,712 ? -35.3°
Reaches altitude 10° 03:51:58 10° 136° (SE) 1,816 ? -34.7°
Enters shadow 03:52:47 14° 128° (SE) 1,548 ? -34.5°
